MyTimes logo

TIMES

Webb Imagery

20/02/2016
Channel Challenge
450m Swim / 2.0km Run

(Click on competitor name to view personalised results)

Name
Race #
Category
Time
(h:mm:ss)
Avg Speed
km/hr
OAll
Place
Cat
Place
KIBBY Mitchell#180Senior Male0:11:34"13.2 " 11
PLANT Luke#177Senior Male0:12:09"12.6 " 22
FRANKISH Monty#121Senior Male0:12:12"12.5 " 33
RHODES Jamie#153Senior Male0:12:22"12.4 " 44
WRIGHT Ben#243Senior Male0:12:28"12.3 " 55
STRAHHN Shane#756Junior Male0:12:29"12.3 " 61
MAYES Linus#767Junior Male0:12:38"12.1 " 72
ROWE Mark#167Senior Male0:12:44"12.0 " 86
WACHTER Aurel#677Male 50+0:13:05"11.7 " 91
ARMSTRONG Emma#329Senior Female0:13:08"11.6 " 101
WILLIAMS Jack#649Junior Male0:13:10"11.6 " 113
TEMPLAR Jake#696Junior Male0:13:20"11.5 " 124
FLEISNER Rob#733Male 50+0:13:28"11.4 " 132
CARROLL Steven#126Senior Male0:13:33"11.3 " 147
WOOD Cory#74340-49 Male0:13:36"11.2 " 151
MCMORROW Thomas#164Senior Male0:13:44"11.1 " 168
JACKSON Dean#210Senior Male0:13:51"11.0 " 179
BOND Marcus#65240-49 Male0:13:55"11.0 " 182
LUMSDEN Kai#621Junior Male0:13:58"11.0 " 195
DISTON Mitchell#749Junior Male0:13:59"10.9 " 206
BIBBY Anthony#68240-49 Male0:14:03"10.9 " 213
BAQUIE Alice#328Senior Female0:14:04"10.9 " 222
VAN AGMEAL Beau#242Senior Male0:14:09"10.8 " 2310
DISTON Ashlee#454Senior Female0:14:24"10.6 " 243
GOWAN Mike#69340-49 Male0:14:24"10.6 " 254
MAGANN Jarrod#135Senior Male0:14:27"10.6 " 2611
FROUDE David#143Senior Male0:14:28"10.6 " 2712
DESSENT Tiger#68140-49 Male0:14:28"10.6 " 285
LITTLE Will#759Junior Male0:14:29"10.6 " 297
ONLEY Thomas#214Senior Male0:14:33"10.5 " 3013
O'DONNELL Mark#127Senior Male0:14:34"10.5 " 3114
HEISLERS Toby#722Junior Male0:14:38"10.5 " 328
VORRATH Kester#70640-49 Male0:14:41"10.4 " 336
HEWETT Dean#241Senior Male0:14:42"10.4 " 3415
KELLY Fletcher#212Senior Male0:14:44"10.4 " 3516
ANDREOLA Declan#740Junior Male0:14:45"10.4 " 369
JUDD Alex#218Senior Male0:14:51"10.3 " 3717
LANDELLS Kara#478Senior Female0:14:52"10.3 " 384
SPENCE Frazer#663Junior Male0:14:52"10.3 " 3910
TILLEY Justin#122Senior Male0:14:57"10.2 " 4018
GARRETT Graem#223Senior Male0:14:58"10.2 " 4119
MAHON Debbi#350Senior Female0:15:02"10.2 " 425
PEDDLE Ryan#672Junior Male0:15:02"10.2 " 4311
ASHER Robin#776Male 50+0:15:05"10.1 " 443
CAPLE Alex#158Senior Male0:15:06"10.1 " 4520
CANN Lara#303Senior Female0:15:08"10.1 " 466
WEBBER Dylan#705Junior Male0:15:10"10.1 " 4712
HUGHES Xavier#165Senior Male0:15:11"10.1 " 4821
LEWIS Simon#213Senior Male0:15:11"10.1 " 4922
SAUAGE Patrick#240Senior Male0:15:12"10.1 " 5023
HETEBRUEG Andre#205Senior Male0:15:14"10.0 " 5124
DICKSON James#237Senior Male0:15:17"10.0 " 5225
BLYTH Chris#76840-49 Male0:15:20"10.0 " 537
LAINO Vanessa#312Senior Female0:15:22"10.0 " 547
HUMPHRIS Stephen#64440-49 Male0:15:22"10.0 " 558
WARD Daniel#201Senior Male0:15:23"9.9 " 5626
GOODE Emily#438Junior Female0:15:23"9.9 " 571
HERBERT Duncan#65540-49 Male0:15:24"9.9 " 589
HARRIS Kris#65440-49 Male0:15:25"9.9 " 5910
WHITE Cameron#229Senior Male0:15:27"9.9 " 6027
REDPATH Jesse Sexy#125Senior Male0:15:33"9.8 " 6128
O'HALLORAN Nick#144Senior Male0:15:39"9.8 " 6229
TENNANT Ross#687Male 50+0:15:40"9.8 " 634
DRISCOLL Ben#163Senior Male0:15:41"9.8 " 6430
BOURKE Chris#60440-49 Male0:15:43"9.7 " 6511
SORENSEN Michael#710Male 50+0:15:43"9.7 " 665
WRAY William#128Senior Male0:15:44"9.7 " 6731
NICHOLSON Steve#172Senior Male0:15:48"9.7 " 6832
WILLS Darren#75340-49 Male0:15:50"9.7 " 6912
LEGGE Andrew#176Senior Male0:15:51"9.7 " 7033
LEECH Bradley#109Senior Male0:15:51"9.7 " 7134
MATTHEWS Jack#148Senior Male0:15:52"9.6 " 7235
REID Cooper#647Junior Male0:15:54"9.6 " 7313
WILKINS Darren#161Senior Male0:15:59"9.6 " 7436
JENNINGS Joseph#221Senior Male0:16:00"9.6 " 7537
MONOGHAN Matt#77540-49 Male0:16:00"9.6 " 7613
BONDARENKO-EDWA Aleksei#191Senior Male0:16:02"9.5 " 7738
PEPPING Christophe#118Senior Male0:16:02"9.5 " 7839
WOOD Karen#400Female 50+0:16:03"9.5 " 791
NEWTON Rodney#619Male 50+0:16:04"9.5 " 806
GROVES Tamara#321Senior Female0:16:07"9.5 " 818
WEIR Jake#232Senior Male0:16:08"9.5 " 8240
MURPHY Victor#73240-49 Male0:16:09"9.5 " 8314
JORDAN Tom#159Senior Male0:16:12"9.4 " 8441
DALLINGER Chris#130Senior Male0:16:13"9.4 " 8542
KORNHOFER Max#193Senior Male0:16:14"9.4 " 8643
COOPER Brett#151Senior Male0:16:16"9.4 " 8744
PRATT Callan#103Senior Male0:16:17"9.4 " 8845
BRODERICK Emily#394Junior Female0:16:17"9.4 " 892
BORN Christian#115Senior Male0:16:18"9.4 " 9046
ABLETT Zac#198Senior Male0:16:18"9.4 " 9147
MCKENZIE Rodney#207Senior Male0:16:19"9.4 " 9248
FLEISNER Ben#155Senior Male0:16:20"9.4 " 9349
ROWLINGSON Darcy#228Senior Male0:16:21"9.4 " 9450
TURNER Georgia#414Senior Female0:16:22"9.3 " 959
MURPHY Gary#101Senior Male0:16:24"9.3 " 9651
O'HALLORAN Chris#203Senior Male0:16:24"9.3 " 9752
LUDBROOK Bethany#323Senior Female0:16:24"9.3 " 9810
HUMPHRY Kirk#72640-49 Male0:16:24"9.3 " 9915
WILKINS Shaun#162Senior Male0:16:25"9.3 " 10053
BOURKE Mick#102Senior Male0:16:26"9.3 " 10154
TURNER Peter#715Male 50+0:16:26"9.3 " 1027
PARKINSON Malcolm#150Senior Male0:16:28"9.3 " 10355
LIDDELL Maryanne#33340-49 Female0:16:30"9.3 " 1041
YUSKO Bill#662Male 50+0:16:30"9.3 " 1058
HUGHES Olivia#375Junior Female0:16:31"9.3 " 1063
SUTHERLAND Bailey#760Junior Male0:16:32"9.3 " 10714
VAN DER ZUCK Angus#741Junior Male0:16:32"9.3 " 10815
LAW Nick#719Junior Male0:16:34"9.2 " 10916
TILLEY Derryn#235Senior Male0:16:37"9.2 " 11056
CURTIS Brad#627Male 50+0:16:37"9.2 " 1119
NETTLEINGHAM Adam#63140-49 Male0:16:38"9.2 " 11216
HOMER Ivan#640Male 50+0:16:39"9.2 " 11310
BILLINGTON Naomi#47140-49 Female0:16:40"9.2 " 1142
STINEAR Tim#76540-49 Male0:16:40"9.2 " 11517
WATSON Russell#71640-49 Male0:16:41"9.2 " 11618
MORLEY Tyson#196Senior Male0:16:42"9.2 " 11757
COX Jessica#382Senior Female0:16:42"9.2 " 11811
BEHRSIN John#713Male 50+0:16:42"9.2 " 11911
TURNLEY Liam#220Senior Male0:16:44"9.1 " 12058
HAHN Daniel#245Senior Male0:16:45"9.1 " 12159
PAYNTER Brian#747Male 50+0:16:45"9.1 " 12212
DUFF Ryley#670Junior Male0:16:45"9.1 " 12317
MOORE Emma#34640-49 Female0:16:46"9.1 " 1243
LEA Michael#178Senior Male0:16:48"9.1 " 12560
SMITH Aaron#142Senior Male0:16:49"9.1 " 12661
NEWSTEAD Laura#411Senior Female0:16:49"9.1 " 12712
HUGHES Ella#458Junior Female0:16:52"9.1 " 1284
FINNIS Matt#69440-49 Male0:16:53"9.1 " 12919
PEZZIMENTI Declan#239Senior Male0:16:54"9.1 " 13062
GYLES Hugh#134Senior Male0:16:56"9.0 " 13163
THWAITES Jack#139Senior Male0:16:57"9.0 " 13264
FITZCLARENCE Kallan#208Senior Male0:16:57"9.0 " 13365
PRYOR Anthony#182Senior Male0:16:58"9.0 " 13466
WILSON-BROWNE Dylan#712Junior Male0:16:59"9.0 " 13518
BORN Daniel#117Senior Male0:17:00"9.0 " 13667
BADGER James#188Senior Male0:17:01"9.0 " 13768
TURNER Liam#774Junior Male0:17:01"9.0 " 13819
BREWER Stephen#156Senior Male0:17:02"9.0 " 13969
STAFFORD Claire#307Senior Female0:17:05"9.0 " 14013
VANDERZWET Michael#74240-49 Male0:17:05"9.0 " 14120
DUNBAR Rob#695Male 50+0:17:08"8.9 " 14213
ELLIS Steve#120Senior Male0:17:09"8.9 " 14370
HAYES Albert#661Male 50+0:17:09"8.9 " 14414
HOMER Max#133Senior Male0:17:10"8.9 " 14571
HAMILTON James#238Senior Male0:17:13"8.9 " 14672
NICHOLSON James#216Senior Male0:17:13"8.9 " 14773
BARRY Bill#108Senior Male0:17:13"8.9 " 14874
KISS Pam#348Female 50+0:17:15"8.9 " 1492
MAYES Tilly#467Junior Female0:17:17"8.9 " 1505
PASCOE Rebecca#326Senior Female0:17:18"8.8 " 15114
HOLMES Scott#189Senior Male0:17:20"8.8 " 15275
GUILMARTIN Jack#226Senior Male0:17:21"8.8 " 15376
WINSTANLEY Benjamin#200Senior Male0:17:25"8.8 " 15477
HUGHES Holly#459Junior Female0:17:28"8.8 " 1556
MILLS Cindy#423Senior Female0:17:28"8.8 " 15615
WHITLA Jim#65140-49 Male0:17:29"8.8 " 15721
SYME John#247Senior Male0:17:33"8.7 " 15878
THWAITES Karl#650Male 50+0:17:33"8.7 " 15915
ARCHDEACON Michael#72440-49 Male0:17:38"8.7 " 16022
MOSELEY Tessa#372Senior Female0:17:39"8.7 " 16116
LANGFORD Imigen#392Junior Female0:17:39"8.7 " 1627
BROWN Sean#75540-49 Male0:17:41"8.7 " 16323
SPEAKE Phillip#209Senior Male0:17:42"8.6 " 16479
INGAMELLS Tom#138Senior Male0:17:43"8.6 " 16580
BAIN Josh#123Senior Male0:17:46"8.6 " 16681
BAYLIS Rachel#46640-49 Female0:17:48"8.6 " 1674
HOUSTON Mitchell#147Senior Male0:17:49"8.6 " 16882
O'HEA Rory#105Senior Male0:17:49"8.6 " 16983
BRENNAN Samual#215Senior Male0:17:50"8.6 " 17084
DARKER Sarah#422Senior Female0:17:50"8.6 " 17117
PENDLEBURY Brett#179Senior Male0:17:51"8.6 " 17285
FLIMOKIS Alexander#751Junior Male0:17:51"8.6 " 17320
HADAWAY Emma#356Senior Female0:17:52"8.6 " 17418
JACKSON Lucy#37640-49 Female0:17:55"8.5 " 1755
MARSHALL Luke#211Senior Male0:17:56"8.5 " 17686
PEDDLE Richard#67140-49 Male0:17:57"8.5 " 17724
CLARKSON Jessica#315Senior Female0:17:58"8.5 " 17819
VERKERK Marcus#60140-49 Male0:17:59"8.5 " 17925
PRICHARD Hugh#192Senior Male0:18:03"8.5 " 18087
JONES Joel#110Senior Male0:18:03"8.5 " 18188
WILSON Josh#160Senior Male0:18:04"8.5 " 18289
FRASER Jodie#387Senior Female0:18:05"8.5 " 18320
WRIGHT Jake#146Senior Male0:18:07"8.4 " 18490
THOMPSON Jorgie Mae#354Junior Female0:18:08"8.4 " 1858
COLLETT Ollie#620Junior Male0:18:08"8.4 " 18621
LEE Jackson#720Junior Male0:18:09"8.4 " 18722
CURTIS Yarran#195Senior Male0:18:10"8.4 " 18891
NIDDRIE Nathan#67540-49 Male0:18:10"8.4 " 18926
WALKER Nick#248Senior Male0:18:12"8.4 " 19092
PETTIFER Katie#427Senior Female0:18:12"8.4 " 19121
STEPHENSON Lachlan#187Senior Male0:18:15"8.4 " 19293
WETZLER David#68540-49 Male0:18:15"8.4 " 19327
WILLIAMS Ian#648Male 50+0:18:19"8.4 " 19416
GIBSON Donna#31040-49 Female0:18:20"8.3 " 1956
O'BRIEN Steve#124Senior Male0:18:21"8.3 " 19694
JACKEL Harry#678Junior Male0:18:21"8.3 " 19723
COLDORA Melijah#371Senior Female0:18:23"8.3 " 19822
DODDS Mitch#174Senior Male0:18:24"8.3 " 19995
MOXEY Ashlee#457Junior Female0:18:24"8.3 " 2009
DISTON Mort#745Male 50+0:18:24"8.3 " 20117
HAYNE Rodney#140Senior Male0:18:25"8.3 " 20296
HALL Adriaan#233Senior Male0:18:27"8.3 " 20397
WEBBER Christophe#184Senior Male0:18:27"8.3 " 20498
DAFF Geoff#660Male 50+0:18:27"8.3 " 20518
BROOKE Jason#154Senior Male0:18:28"8.3 " 20699
LANCASTER Roger#168Senior Male0:18:28"8.3 " 207100
DODDS Janine#37740-49 Female0:18:28"8.3 " 2087
JENKINS Steven#197Senior Male0:18:31"8.3 " 209101
RAMSAY Leigh#234Senior Male0:18:31"8.3 " 210102
HOMER Finn#639Junior Male0:18:31"8.3 " 21124
O'DONOHUE Mark#711Male 50+0:18:31"8.3 " 21219
CHANDLER Mark#72740-49 Male0:18:32"8.3 " 21328
GARDNER Liz#406Female 50+0:18:33"8.2 " 2143
GILBERT Kara#39040-49 Female0:18:33"8.2 " 2158
BARRETT Adam#63340-49 Male0:18:33"8.2 " 21629
PHILALAY Alex#183Senior Male0:18:38"8.2 " 217103
MORRISON Will#697Male 50+0:18:38"8.2 " 21820
TAYLOR Chris#64140-49 Male0:18:38"8.2 " 21930
HARDING Justin#171Senior Male0:18:41"8.2 " 220104
FISHER Callum#773Junior Male0:18:42"8.2 " 22125
SZEITI Justine#439Senior Female0:18:44"8.2 " 22223
JOHNSTONE Chris#72840-49 Male0:18:45"8.2 " 22331
SANDILANDS James#60240-49 Male0:18:45"8.2 " 22432
STEPHENS Janice#317Female 50+0:18:46"8.2 " 2254
AXFORD Brad#76140-49 Male0:18:47"8.1 " 22633
MCAULIFFE Dave#114Senior Male0:18:48"8.1 " 227105
DOBBS Kylie#428Senior Female0:18:48"8.1 " 22824
ROWE Joel#111Senior Male0:18:49"8.1 " 229106
BRUHN Rebecca#389Senior Female0:18:49"8.1 " 23025
MARSHALL Sarah#41740-49 Female0:18:49"8.1 " 2319
EMERY Mick#608Male 50+0:18:49"8.1 " 23221
BARRY Zak#762Junior Male0:18:50"8.1 " 23326
BARKER Lauren#429Senior Female0:18:50"8.1 " 23426
CAMERON Jane#440Female 50+0:18:51"8.1 " 2355
ASTBURY Vanessa#41940-49 Female0:18:51"8.1 " 23610
FELSTEAD Anthony#231Senior Male0:18:54"8.1 " 237107
STROHBECK Lars#186Senior Male0:18:57"8.1 " 238108
THOMPSON Andrew#222Senior Male0:18:58"8.1 " 239109
BROOKE Andrew#166Senior Male0:18:58"8.1 " 240110
COX Danielle#456Senior Female0:19:01"8.0 " 24127
VAN STEENSEL Kylie#349Senior Female0:19:03"8.0 " 24228
TYRRELL Sarah#426Senior Female0:19:03"8.0 " 24329
PEZZIMENTI Peter#170Senior Male0:19:06"8.0 " 244111
WRAY Harriet#336Senior Female0:19:06"8.0 " 24530
BRIDERICK Deb#39340-49 Female0:19:07"8.0 " 24611
HYND Jordan#744Junior Male0:19:07"8.0 " 24727
SYME Rosemary#482Senior Female0:19:12"8.0 " 24831
BECK Aimee#463Senior Female0:19:15"7.9 " 24932
JOHNSON Travis#67940-49 Male0:19:15"7.9 " 25034
MCDONALD Kellie#37840-49 Female0:19:16"7.9 " 25112
CRANSTON Samantha#40340-49 Female0:19:18"7.9 " 25213
MATTHEWS Lucinda#308Senior Female0:19:21"7.9 " 25333
ANTHONY Michael#60340-49 Male0:19:21"7.9 " 25435
KRAINER Steph#473Senior Female0:19:23"7.9 " 25534
SUNDERLAND Greg#77140-49 Male0:19:24"7.9 " 25636
FRANKS Leigh#190Senior Male0:19:25"7.9 " 257112
ATTANASIO Simone#129Senior Male0:19:27"7.9 " 258113
LA FONTAINE Danny#68040-49 Male0:19:27"7.9 " 25937
LUKER Ben#206Senior Male0:19:31"7.8 " 260114
O'LEARY Frank#204Senior Male0:19:31"7.8 " 261115
SMITH Louise#366Junior Female0:19:31"7.8 " 26210
MC CASKER Jessica#464Senior Female0:19:32"7.8 " 26335
WOOD Braden#634Junior Male0:19:35"7.8 " 26428
COLLINS Julian#66940-49 Male0:19:36"7.8 " 26538
VALENA Rex#717Male 50+0:19:36"7.8 " 26622
LIUBINAS David#194Senior Male0:19:37"7.8 " 267116
JOHNSON Eric#173Senior Male0:19:39"7.8 " 268117
GIBSON Alexandra#311Junior Female0:19:39"7.8 " 26911
VEALL Matthew#106Senior Male0:19:40"7.8 " 270118
DAFF Jessica#462Senior Female0:19:42"7.8 " 27136
LIDDELL Adam#145Senior Male0:19:43"7.8 " 272119
WATSON Simon#76640-49 Male0:19:43"7.8 " 27339
MARIAN Olivia#448Junior Female0:19:48"7.7 " 27412
WILLIAMS Taylah#435Junior Female0:19:48"7.7 " 27513
ROOKS Bhavani#332Female 50+0:19:52"7.7 " 2766
MARIAN Sarah#447Junior Female0:19:54"7.7 " 27714
PENGLASE Kellie#413Senior Female0:19:55"7.7 " 27837
SNELL Ron#683Junior Male0:19:55"7.7 " 27929
MINTER Kris#157Senior Male0:19:58"7.7 " 280120
O'CONNELL Shannon#325Junior Female0:19:58"7.7 " 28115
LEVERSHA David#691Male 50+0:19:59"7.7 " 28223
MEADE Dion#199Senior Male0:20:00"7.6 " 283121
FORD David#68640-49 Male0:20:00"7.6 " 28440
SHEPPARD Sam#75240-49 Male0:20:00"7.6 " 28541
LEVERSHA Lyn#385Female 50+0:20:01"7.6 " 2867
BRACCHI Matthew#69240-49 Male0:20:01"7.6 " 28742
SCICLUNA Todd#149Senior Male0:20:03"7.6 " 288122
SCOTT Louise#40240-49 Female0:20:03"7.6 " 28914
LEA Georgia#415Senior Female0:20:04"7.6 " 29038
DYNON Paul#73140-49 Male0:20:04"7.6 " 29143
THOMAS Grant#68440-49 Male0:20:05"7.6 " 29244
ZIMMERMAN Kirrily#33940-49 Female0:20:06"7.6 " 29315
GIBBS Brett#65340-49 Male0:20:10"7.6 " 29445
JOHNSON Drew#169Senior Male0:20:13"7.6 " 295123
PATERSON Gillian#477Senior Female0:20:17"7.5 " 29639
ADAMS Simon#725Male 50+0:20:18"7.5 " 29724
GRIME Warrick#665Male 50+0:20:22"7.5 " 29825
GRANT Margi#420Female 50+0:20:24"7.5 " 2998
WILLIAMS Peter#72940-49 Male0:20:24"7.5 " 30046
BROPHY Clare#338Female 50+0:20:24"7.5 " 3019
WEBBER Neil#746Male 50+0:20:27"7.5 " 30226
DOVER John#61340-49 Male0:20:30"7.5 " 30347
JONES Pui-Shan#36340-49 Female0:20:31"7.5 " 30416
WARE Matt#73940-49 Male0:20:32"7.5 " 30548
COSTELLO Rachel#40740-49 Female0:20:33"7.4 " 30617
PHAN Tuong#75040-49 Male0:20:33"7.4 " 30749
BRUSAMARELLO Lucy#322Senior Female0:20:36"7.4 " 30840
BROPHY David#636Male 50+0:20:36"7.4 " 30927
MERRICK Jennifer#331Female 50+0:20:37"7.4 " 31010
SCHULZE Damien#64240-49 Male0:20:38"7.4 " 31150
HARVEY Brooke#469Senior Female0:20:39"7.4 " 31241
CASEY Rebecca#460Junior Female0:20:42"7.4 " 31316
HOGAN Krystal#479Senior Female0:20:43"7.4 " 31442
WATSON Tessa#362Junior Female0:20:47"7.4 " 31517
TAYLOR Cheryl#472Female 50+0:20:50"7.3 " 31611
LEA Trevor#690Male 50+0:20:54"7.3 " 31728
MATTHEWS Robert#659Male 50+0:20:54"7.3 " 31829
FERGUSON Heather#337Female 50+0:20:55"7.3 " 31912
ONLEY Samantha#437Senior Female0:20:57"7.3 " 32043
SHAW Ian#735Male 50+0:20:57"7.3 " 32130
CALDWELL James#236Senior Male0:20:59"7.3 " 322124
VAN DER HEYDEN Natalie#361Senior Female0:21:00"7.3 " 32344
GOLDING Jake#66840-49 Male0:21:00"7.3 " 32451
MEAGHER Kerryn#408Senior Female0:21:03"7.3 " 32545
NICHOLSON Garry#666Male 50+0:21:05"7.3 " 32631
MELANIE Dare#340Senior Female0:21:07"7.2 " 32746
MOODY Breann#359Senior Female0:21:07"7.2 " 32847
RYAN Tori#474Senior Female0:21:08"7.2 " 32948
HESS Esther#365Senior Female0:21:09"7.2 " 33049
PAYNE Jacqui#425Senior Female0:21:12"7.2 " 33150
WATSON Angus#152Senior Male0:21:13"7.2 " 332125
BORN Tim#622Male 50+0:21:16"7.2 " 33332
BALDWIN Liz#316Senior Female0:21:17"7.2 " 33451
JOHNSTON Tessa#475Senior Female0:21:17"7.2 " 33552
FRANGESKAKIS Jackie#401Senior Female0:21:19"7.2 " 33653
TURNER Bridget#353Senior Female0:21:23"7.2 " 33754
CAMPOGRANDE Lucie#344Senior Female0:21:24"7.1 " 33855
MANNING John#69940-49 Male0:21:24"7.1 " 33952
EDMONDSON Darren#61540-49 Male0:21:24"7.1 " 34053
ENGEL Hannah#355Senior Female0:21:28"7.1 " 34156
HOLLINS Jenny#36740-49 Female0:21:29"7.1 " 34218
CLEELAND Pip#41240-49 Female0:21:33"7.1 " 34319
ANDERSON Lisa#342Female 50+0:21:33"7.1 " 34413
ARAN Bishnu#219Senior Male0:21:35"7.1 " 345126
CAMERON Felicity#313Senior Female0:21:37"7.1 " 34657
CREAN Peter#623Male 50+0:21:43"7.0 " 34733
COUSINS Richard#645Male 50+0:21:44"7.0 " 34834
CASEY Amelia#461Junior Female0:21:47"7.0 " 34918
ARTICO Gavin#60540-49 Male0:21:47"7.0 " 35054
JACKSON Michael#246Senior Male0:21:48"7.0 " 351127
RIELLY Debbie#44140-49 Female0:21:50"7.0 " 35220
LO Eric#137Senior Male0:21:50"7.0 " 353128
LONSDALE Sarah#380Senior Female0:21:50"7.0 " 35458
WILLIS Eddy#470Female 50+0:21:51"7.0 " 35514
WICKS Brendon#637Male 50+0:21:51"7.0 " 35635
GREGORY Cam#667Male 50+0:21:51"7.0 " 35736
WEBBER Simone#455Female 50+0:21:55"7.0 " 35815
THOMAS Gary#646Male 50+0:21:57"7.0 " 35937
WATSON Richard#664Male 50+0:22:05"6.9 " 36038
SYME Alex#112Senior Male0:22:07"6.9 " 361129
CAPLE David#673Male 50+0:22:12"6.9 " 36239
STARBUCK William#131Senior Male0:22:13"6.9 " 363130
PERRY Phillip#61240-49 Male0:22:13"6.9 " 36455
CHAN Cecelia#418Senior Female0:22:15"6.9 " 36559
HORNSBY Tony#244Senior Male0:22:16"6.9 " 366131
WYATT Jessie#399Senior Female0:22:17"6.9 " 36760
CHASTON Pete#764Male 50+0:22:19"6.9 " 36840
DRAMOND Michelle#436Female 50+0:22:19"6.9 " 36916
THERIAULT David#736Male 50+0:22:22"6.8 " 37041
LEA Edwina#384Senior Female0:22:23"6.8 " 37161
FLEISNER Paul#734Male 50+0:22:23"6.8 " 37242
EISEA Zac#227Senior Male0:22:27"6.8 " 373132
WHITEHEAD Alicia#305Senior Female0:22:28"6.8 " 37462
SCOTT David#70940-49 Male0:22:31"6.8 " 37556
MURRAY Aimee#320Senior Female0:22:37"6.8 " 37663
JOHNSTONE Felicity#42440-49 Female0:22:41"6.7 " 37721
BUICK Megan#39540-49 Female0:22:41"6.7 " 37822
MOODY Celine#360Senior Female0:22:42"6.7 " 37964
CAMANZUL Maria#433Female 50+0:22:51"6.7 " 38017
MURPHY Sean#610Male 50+0:22:55"6.7 " 38143
MURPHY Brendan#230Senior Male0:22:56"6.7 " 382133
QUINN Chloe#442Senior Female0:22:58"6.7 " 38365
ADAMS Murray#708Male 50+0:22:58"6.7 " 38444
BRUSAMARELLO Jo#388Female 50+0:23:04"6.6 " 38518
WILLIAMS Elizabeth#430Senior Female0:23:06"6.6 " 38666
SHEERS Brooke#318Senior Female0:23:12"6.6 " 38767
MACAFFER Susan#34540-49 Female0:23:19"6.6 " 38823
SMART Fiona#37940-49 Female0:23:21"6.6 " 38924
COLLINS John#703Male 50+0:23:21"6.6 " 39045
WRIGHT Phil#738Male 50+0:23:24"6.5 " 39146
SYME Michael#769Male 50+0:23:25"6.5 " 39247
HOWE Debra#46540-49 Female0:23:25"6.5 " 39325
LEES Sam#119Senior Male0:23:28"6.5 " 394134
BOWKER Colin#68940-49 Male0:23:31"6.5 " 39557
PEZZIMENTI Fred#614Male 50+0:23:33"6.5 " 39648
GIBSON Sheraleigh#330Senior Female0:23:36"6.5 " 39768
GOODE Tom#618Male 50+0:23:37"6.5 " 39849
HAYES Frank#723Male 50+0:23:38"6.5 " 39950
MCKENZIE Lyndal#39140-49 Female0:23:41"6.5 " 40026
ORR Michele#39640-49 Female0:23:44"6.4 " 40127
AGNELLO Elizabeth#449Senior Female0:23:52"6.4 " 40269
CARTER Verena#44340-49 Female0:23:53"6.4 " 40328
TAYLOR Sarah Jane#431Senior Female0:23:54"6.4 " 40470
KEWMING Robyn#347Female 50+0:23:55"6.4 " 40519
LLOYD Greg#60940-49 Male0:24:00"6.4 " 40658
JONES Vicki#304Female 50+0:24:09"6.3 " 40720
FOOKS Hannah#404Senior Female0:24:12"6.3 " 40871
EMERY Diane#405Female 50+0:24:12"6.3 " 40921
LANCASTER Donna#31440-49 Female0:24:16"6.3 " 41029
DECASTELLA Leo#700Junior Male0:24:27"6.3 " 41130
NEIL Alison#309Senior Female0:24:31"6.2 " 41272
DALLINGER Brian#757Male 50+0:24:45"6.2 " 41351
DENWARD Dylan#217Senior Male0:24:46"6.2 " 414135
WERRETT Marie#335Female 50+0:24:48"6.2 " 41522
COLEMAN Paul#638Male 50+0:24:51"6.2 " 41652
BONDARENKO Angeline#383Female 50+0:24:55"6.1 " 41723
LONSDALE Annita#381Female 50+0:24:59"6.1 " 41824
CLEELAND Mike#714Male 50+0:25:02"6.1 " 41953
CAIN Greg#763Male 50+0:25:03"6.1 " 42054
O'CONNELL Katherine#39740-49 Female0:25:16"6.1 " 42130
MOULD Annie#301Senior Female0:25:23"6.0 " 42273
LAW Matthew#71840-49 Male0:25:23"6.0 " 42359
BUCHANAN Kathryn#351Senior Female0:25:24"6.0 " 42474
BLUNDY Peter#770Male 50+0:25:29"6.0 " 42555
NEAL Susan#598Female 50+0:25:38"6.0 " 42625
KELLY Nikki#37340-49 Female0:25:41"6.0 " 42731
NICHOLSON Ron#772Male 50+0:25:41"6.0 " 42856
THOMAS Julie#357Female 50+0:25:44"5.9 " 42926
WYATT Philip#704Male 50+0:26:02"5.9 " 43057
SEMMENS David#202Senior Male0:26:04"5.9 " 431136
WALKER Christine#444Female 50+0:26:22"5.8 " 43227
HOUSTON Keith#657Male 50+0:26:40"5.7 " 43358
LAWRY Peter#656Male 50+0:26:50"5.7 " 43459
CARLSON Oscar#730Male 50+0:27:34"5.6 " 43560
EVANS William#698Male 50+0:27:36"5.5 " 43661
CHAMBERS Ron#611Male 50+0:27:53"5.5 " 43762
HAYNE Sue#358Female 50+0:27:59"5.5 " 43828
REEK George#676Male 50+0:28:04"5.5 " 43963
O'NEIL Kielan#758Junior Male0:28:04"5.5 " 44031
CURTIS Susan#44640-49 Female0:28:07"5.4 " 44132
FANTOMA Alex#624Male 50+0:28:22"5.4 " 44264
AXNICK Doug#707Male 50+0:28:37"5.3 " 44365
FANTOMA David#630Male 50+0:29:00"5.3 " 44466
FALLAW Jon#629Male 50+0:29:52"5.1 " 44567
BOURKE Gay#352Female 50+0:30:17"5.1 " 44629
BOND Vivienne#343Female 50+0:30:50"5.0 " 44730
HAYWARD Bec#327Female 50+0:31:22"4.9 " 44831
MCDONALD Penny#324Female 50+0:34:57"4.4 " 44932
KONTOGOURIS Earlene#476Female 50+0:42:29"3.6 " 45033